Regional Weather Roundup
Issued by NWS Jackson, KY

Home | Current Version | Previous Version | Graphics & Text | Print | Product List | Glossary On
Versions: 1 2 3 4 5 6 7 8 9 10 11 12 13 14 15 16 17 18 19 20 21 22 23 24 25 26 27 28 29 30 31 32 33 34 35 36 37 38 39 40 41 42 43 44 45 46 47 48 49 50
000
ASUS43 KJKL 070310
RWRJKL

EAST KENTUCKY HOURLY WEATHER ROUNDUP
NATIONAL WEATHER SERVICE JACKSON KY
1100 PM EDT MON JUL 06 2015

NOTE: "FAIR" INDICATES FEW OR NO CLOUDS BELOW 12,000 FEET WITH
NO SIGNIFICANT WEATHER AND/OR OBSTRUCTIONS TO VISIBILITY.

* THESE REPORTS ARE NOT UNDER NWS QUALITY CONTROL AND MAY NOT
  REPORT WEATHER SUCH AS PRECIPITATION AND FOG.

KYZ079-080-083-085-087-088-110-112-115-119-120-070400
...EASTERN KENTUCKY...

CITY           SKY/WX    TMP DP  RH WIND       PRES   REMARKS
JACKSON        CLEAR     73  67  81 CALM      30.10R
LONDON         PTCLDY    72  67  84 CALM      30.10R
SOMERSET*      CLEAR     70  70 100 CALM      30.10R
MONTICELLO*    CLEAR     69  69 100 CALM      30.11R FOG
MIDDLESBORO*   CLEAR     70  69  95 CALM      30.12R
HARLAN APT*      N/A     68  68 100 MISG      30.13R
HAZARD APT*    CLEAR     70  70 100 CALM      30.10R FOG
BLACK MTN*       N/A     64  64 100 S7          N/A
PIKEVILLE APT* CLEAR     70  68  94 CALM      30.11R
BIG SANDY*     PTCLDY    72  69  90 CALM      30.09R
MOREHEAD APT*  PTCLDY    72  68  88 S6        30.08R FOG
$$

KYZ035-036-041-042-044-050-067-078-099-070400
...CENTRAL KENTUCKY...

CITY           SKY/WX    TMP DP  RH WIND       PRES   REMARKS
MT STERLING*   CLEAR     72  68  88 SW3       30.08R
FLEMING/MASON* CLEAR     73  68  83 S5        30.06R
DANVILLE*      PTCLDY    72  70  94 CALM      30.09R
RICHMOND*      CLEAR     73  66  78 S5        30.07R
LEXINGTON      CLEAR     73  68  84 S7        30.06R
FRANKFORT      CLEAR     74  68  81 SW3       30.05R
$$

KYZ091>093-OHZ055-061-077-WVZ005-015-034-035-042-070400
...SOUTHERN OHIO/WEST VIRGINIA...

CITY           SKY/WX    TMP DP  RH WIND       PRES   REMARKS
COVINGTON      PTCLDY    76  68  76 S6        30.03R
COLUMBUS       PTCLDY    73  62  68 SE5       30.01R
DAYTON         MOCLDY    77  67  71 S7        30.02R
WILMINGTON     PTCLDY    71  65  81 S6        30.03R HAZE
HUNTINGTON     CLEAR     71  68  90 S5        30.05R
CHARLESTON     PTCLDY    71  67  87 CALM      30.07R
PINEVILLE*       N/A     65  65 100 MISG      30.18R FOG
BECKLEY        CLEAR     65  62  90 CALM      30.16R
BLUEFIELD      CLEAR     67  62  84 W3        30.19R
$$

VAZ002-007-008-TNZ017-027-036-066-071-070400
...SOUTHWEST VIRGINIA/EAST TENNESSEE...

CITY           SKY/WX    TMP DP  RH WIND       PRES   REMARKS
WISE*          CLEAR     66  64  94 CALM      30.20R FOG
JONESVILLE*      N/A    N/A N/A N/A MISG        N/A
ABINGDON*      CLEAR     68  67  98 CALM      30.16R FOG
BRISTOL        CLEAR     69  67  93 CALM      30.13R FOG
KNOXVILLE      PTCLDY    75  69  81 SW5       30.10R
OAK RIDGE      CLEAR     74  70  87 CALM      30.11R
CROSSVILLE     CLEAR     71  66  84 CALM      30.15R
NASHVILLE      PTCLDY    77  72  84 S5        30.07R
$$

...KEY TO REMARKS...
VSB - VISIBILITY IN MILES
WCI - WIND CHILL INDEX
HX  - HEAT INDEX

$$


USA.gov is the U.S. government's official web portal to all federal, state and local government web resources and services.